Tiempo cada hora Ábidos

Hoy, 31 Octubre, Sábado

Tiempo Temperatura Precipitaciones Viento Presión Humedad
00:00 +27°C° 0.3 mm 2 mps 756 mmHg 91%
01:00 +27°C° 0.3 mm 1 mps 755 mmHg 92%
02:00 +26°C° 0.3 mm 1 mps 754 mmHg 93%
03:00 +26°C° 0 mm 1 mps 755 mmHg 94%
04:00 +26°C° 0 mm 1 mps 755 mmHg 94%
05:00 +26°C° 0 mm 1 mps 755 mmHg 94%
06:00 +27°C° 0 mm 2 mps 755 mmHg 86%
07:00 +29°C° 0 mm 2 mps 756 mmHg 78%
08:00 +30°C° 0 mm 2 mps 756 mmHg 70%
09:00 +32°C° 0 mm 2 mps 756 mmHg 61%
10:00 +35°C° 0 mm 2 mps 755 mmHg 51%
11:00 +37°C° 0 mm 2 mps 755 mmHg 42%
12:00 +38°C° 0 mm 2 mps 754 mmHg 38%
13:00 +39°C° 0 mm 2 mps 753 mmHg 34%
14:00 +40°C° 0 mm 2 mps 752 mmHg 30%
15:00 +38°C° 0 mm 2 mps 752 mmHg 33%
16:00 +37°C° 0 mm 2 mps 752 mmHg 36%
17:00 +35°C° 0 mm 1 mps 752 mmHg 39%
18:00 +33°C° 0 mm 1 mps 753 mmHg 41%
19:00 +32°C° 0 mm 1 mps 753 mmHg 43%
20:00 +30°C° 0 mm 1 mps 754 mmHg 46%
21:00 +30°C° 0 mm 1 mps 754 mmHg 46%
22:00 +29°C° 0 mm 1 mps 754 mmHg 46%
23:00 +29°C° 0 mm 1 mps 754 mmHg 47%

Mañana, 1 Noviembre, Domingo

Tiempo Temperatura Precipitaciones Viento Presión Humedad
00:00 +28°C° 0 mm 1 mps 754 mmHg 49%
01:00 +28°C° 0 mm 1 mps 754 mmHg 52%
02:00 +27°C° 0 mm 1 mps 754 mmHg 54%
03:00 +27°C° 0 mm 1 mps 754 mmHg 57%
04:00 +27°C° 0 mm 1 mps 754 mmHg 59%
05:00 +27°C° 0 mm 1 mps 754 mmHg 62%
06:00 +29°C° 0 mm 1 mps 755 mmHg 58%
07:00 +31°C° 0 mm 1 mps 755 mmHg 55%
08:00 +33°C° 0 mm 1 mps 756 mmHg 52%
09:00 +35°C° 0 mm 1 mps 755 mmHg 46%
10:00 +37°C° 0 mm 1 mps 755 mmHg 40%
11:00 +40°C° 0 mm 1 mps 754 mmHg 34%
12:00 +40°C° 0 mm 1 mps 753 mmHg 33%
13:00 +40°C° 0 mm 1 mps 752 mmHg 32%
14:00 +40°C° 0 mm 1 mps 751 mmHg 31%
15:00 +39°C° 0 mm 1 mps 751 mmHg 34%
16:00 +37°C° 0 mm 1 mps 751 mmHg 37%
17:00 +33°C° 0 mm 0 mps 751 mmHg 40%
18:00 +32°C° 0 mm 0 mps 752 mmHg 42%
19:00 +33°C° 0 mm 1 mps 753 mmHg 45%
20:00 +33°C° 0 mm 1 mps 753 mmHg 47%
21:00 +32°C° 0.1 mm 1 mps 754 mmHg 51%
22:00 +31°C° 0.1 mm 1 mps 754 mmHg 54%
23:00 +31°C° 0.1 mm 1 mps 755 mmHg 57%

Pasado mañana, 2 Noviembre, Lunes

Tiempo Temperatura Precipitaciones Viento Presión Humedad
00:00 +30°C° 0.7 mm 1 mps 755 mmHg 66%
01:00 +28°C° 0.7 mm 2 mps 755 mmHg 74%
02:00 +27°C° 0.7 mm 2 mps 754 mmHg 83%
03:00 +27°C° 2.3 mm 1 mps 755 mmHg 86%
04:00 +27°C° 2.3 mm 1 mps 755 mmHg 89%
05:00 +26°C° 2.3 mm 1 mps 756 mmHg 92%
06:00 +26°C° 2.1 mm 1 mps 756 mmHg 92%
07:00 +27°C° 2.1 mm 1 mps 757 mmHg 91%
08:00 +27°C° 2.1 mm 1 mps 757 mmHg 91%
09:00 +27°C° 1 mm 1 mps 757 mmHg 89%
10:00 +28°C° 1 mm 1 mps 756 mmHg 87%
11:00 +28°C° 1 mm 1 mps 756 mmHg 85%
12:00 +30°C° 0.2 mm 1 mps 755 mmHg 77%
13:00 +31°C° 0.2 mm 1 mps 754 mmHg 69%
14:00 +33°C° 0.2 mm 1 mps 753 mmHg 61%
15:00 +32°C° 0.6 mm 1 mps 753 mmHg 66%
16:00 +31°C° 0.6 mm 1 mps 753 mmHg 71%
17:00 +28°C° 0.6 mm 0 mps 754 mmHg 77%
18:00 +29°C° 0.2 mm 1 mps 754 mmHg 80%
19:00 +28°C° 0.2 mm 1 mps 754 mmHg 84%
20:00 +27°C° 0.2 mm 1 mps 755 mmHg 87%
21:00 +27°C° 0 mm 1 mps 755 mmHg 87%
22:00 +27°C° 0 mm 1 mps 755 mmHg 86%
23:00 +27°C° 0 mm 1 mps 755 mmHg 86%

3 Noviembre, Martes

Tiempo Temperatura Precipitaciones Viento Presión Humedad
00:00 +27°C° 0 mm 1 mps 754 mmHg 87%
01:00 +27°C° 0 mm 1 mps 754 mmHg 87%
02:00 +27°C° 0 mm 1 mps 754 mmHg 88%
03:00 +26°C° 0 mm 1 mps 754 mmHg 89%
04:00 +26°C° 0 mm 1 mps 755 mmHg 90%
05:00 +24°C° 0 mm 0 mps 755 mmHg 91%
06:00 +25°C° 0 mm 0 mps 756 mmHg 84%
07:00 +27°C° 0 mm 0 mps 757 mmHg 77%
08:00 +28°C° 0 mm 0 mps 758 mmHg 70%
09:00 +30°C° 0.3 mm 0 mps 757 mmHg 66%
10:00 +33°C° 0.3 mm 1 mps 757 mmHg 61%
11:00 +34°C° 0.3 mm 1 mps 756 mmHg 57%
12:00 +34°C° 0.1 mm 1 mps 755 mmHg 56%
13:00 +34°C° 0.1 mm 1 mps 754 mmHg 55%
14:00 +34°C° 0.1 mm 1 mps 753 mmHg 54%
15:00 +33°C° 0 mm 1 mps 753 mmHg 57%
16:00 +33°C° 0 mm 1 mps 753 mmHg 59%
17:00 +32°C° 0 mm 1 mps 753 mmHg 62%
18:00 +31°C° 0.2 mm 1 mps 754 mmHg 67%
19:00 +30°C° 0.2 mm 1 mps 754 mmHg 72%
20:00 +29°C° 0.2 mm 1 mps 755 mmHg 78%
21:00 +28°C° 0.1 mm 1 mps 755 mmHg 79%
22:00 +28°C° 0.1 mm 1 mps 755 mmHg 81%
23:00 +27°C° 0.1 mm 1 mps 756 mmHg 83%

4 Noviembre, Miércoles

Tiempo Temperatura Precipitaciones Viento Presión Humedad
00:00 +27°C° 0.3 mm 1 mps 755 mmHg 85%
01:00 +27°C° 0.3 mm 1 mps 755 mmHg 87%
02:00 +26°C° 0.3 mm 1 mps 755 mmHg 88%
03:00 +26°C° 0.4 mm 1 mps 755 mmHg 90%
04:00 +26°C° 0.4 mm 1 mps 755 mmHg 91%
05:00 +26°C° 0.4 mm 1 mps 755 mmHg 92%
06:00 +25°C° 0.1 mm 0 mps 756 mmHg 87%
07:00 +26°C° 0.1 mm 0 mps 757 mmHg 82%
08:00 +27°C° 0.1 mm 0 mps 757 mmHg 77%
09:00 +32°C° 0 mm 1 mps 757 mmHg 68%
10:00 +34°C° 0 mm 1 mps 756 mmHg 59%
11:00 +36°C° 0 mm 1 mps 756 mmHg 50%
12:00 +36°C° 0 mm 1 mps 755 mmHg 49%
13:00 +36°C° 0 mm 1 mps 754 mmHg 48%
14:00 +36°C° 0 mm 1 mps 753 mmHg 48%
15:00 +35°C° 0.3 mm 1 mps 753 mmHg 51%
16:00 +34°C° 0.3 mm 1 mps 753 mmHg 55%
17:00 +33°C° 0.3 mm 1 mps 753 mmHg 59%
18:00 +31°C° 0.5 mm 1 mps 753 mmHg 66%
19:00 +30°C° 0.5 mm 2 mps 754 mmHg 74%
20:00 +28°C° 0.5 mm 2 mps 754 mmHg 81%
21:00 +28°C° 0.1 mm 2 mps 754 mmHg 84%
22:00 +27°C° 0.1 mm 1 mps 755 mmHg 87%
23:00 +27°C° 0.1 mm 1 mps 755 mmHg 90%

5 Noviembre, Jueves

Tiempo Temperatura Precipitaciones Viento Presión Humedad
00:00 +27°C° 0 mm 1 mps 755 mmHg 91%
01:00 +27°C° 0 mm 1 mps 754 mmHg 92%
02:00 +26°C° 0 mm 1 mps 754 mmHg 92%
03:00 +26°C° 0.1 mm 1 mps 754 mmHg 93%
04:00 +26°C° 0.1 mm 1 mps 754 mmHg 93%
05:00 +26°C° 0.1 mm 1 mps 754 mmHg 93%
06:00 +27°C° 0 mm 1 mps 755 mmHg 86%
07:00 +29°C° 0 mm 1 mps 756 mmHg 79%
08:00 +30°C° 0 mm 1 mps 756 mmHg 72%
09:00 +32°C° 0 mm 1 mps 756 mmHg 63%
10:00 +35°C° 0 mm 2 mps 755 mmHg 55%
11:00 +37°C° 0 mm 2 mps 755 mmHg 46%
12:00 +37°C° 0.1 mm 1 mps 753 mmHg 44%
13:00 +37°C° 0.1 mm 1 mps 752 mmHg 42%
14:00 +39°C° 0.1 mm 1 mps 751 mmHg 40%
15:00 +36°C° 0.4 mm 1 mps 751 mmHg 47%
16:00 +34°C° 0.4 mm 1 mps 751 mmHg 53%
17:00 +33°C° 0.4 mm 1 mps 751 mmHg 60%
18:00 +31°C° 0.8 mm 1 mps 752 mmHg 68%
19:00 +29°C° 0.8 mm 1 mps 752 mmHg 75%
20:00 +28°C° 0.8 mm 2 mps 753 mmHg 83%
21:00 +27°C° 1 mm 2 mps 753 mmHg 86%
22:00 +27°C° 1 mm 2 mps 753 mmHg 89%
23:00 +26°C° 1 mm 2 mps 754 mmHg 92%
Mostrar más

Necesitamos Su Consentimiento

Meteoprog y nuestros Proveedores de Servicios pueden almacenar y acceder a sus datos personales como cookies, identificadores de dispositivo u otras tecnologías similares de su dispositivo y procesar dichos datos para personalizar contenido y anuncios, además de ofrecer funciones de redes sociales y analizar el tráfico.

  • Almacenar y/o acceder a información en su dispositivo

    Se puede almacenar o acceder a cookies, identificadores de dispositivo u otra información de su dispositivo para los fines anteriormente indicados.

  • Anuncios y contenido personalizados, medición de anuncios y contenido, percepciones del público, y desarrollo de productos

    Los anuncios y el contenido pueden personalizarse en base a su perfil. Se pueden añadir más datos para personalizar mejor los anuncios y contenidos. Se puede medir el rendimiento de los anuncios y contenidos. Se puede obtener la percepción sobre el público que ha visto los anuncios y contenidos. Dichos datos pueden usarse para desarrollar o mejorar la experiencia del usuario, sistemas y software.

Al hacer clic en ‘Estoy De Acuerdo’ usted permitirá el uso de las cookies, identificadores de dispositivo, balizas web u otras tecnologías similares indicadas. Su configuración puede cambiarse desde el navegador de su dispositivo.

Para ciertos fines, los intereses legítimos pueden ser considerados por encima del consentimiento. Puede leer más sobre ello en nuestra Política de Privacidad y Cookies.